Weather History for Waupaca, WI

Change the Weather History Date:

Tuesday, April 30, 2013

  Actual Average Record
Temperature  
Mean Temperature 74 °F -  
Max Temperature 88 °F 64 °F 89 °F (1970)
Min Temperature 59 °F 41 °F 13 °F (1956)
Cooling Degree Days 8    
Growing Degree Days 24 (Base 50)    
Moisture  
Dew Point 51 °F    
Average Humidity 52    
Maximum Humidity 82    
Minimum Humidity 21    
Precipitation  
Precipitation 0.05 in - - ()
Sea Level Pressure  
Sea Level Pressure 29.69 in    
Wind  
Wind Speed 10 mph (SSW)    
Max Wind Speed 26 mph    
Max Gust Speed 31 mph    
Visibility 10 miles    
Events Rain    
Averages and records for this station are not official NWS values.
T = Trace of Precipitation, MM = Missing Value Source: NWS Daily Summary

Daily Weather History Graph

Daily Weather History Graph

Search for Another Location

Airport:

Trip Planner

Search our weather history database for the weather conditions in past years. The results will help you decide how hot, cold, wet, or windy it might be!

Date:

Astronomy

Apr. 30, 2013 Rise Set
Actual Time 5:48 AM CDT 7:59 PM CDT
Civil Twilight 5:16 AM CDT 8:31 PM CDT
Nautical Twilight 4:36 AM CDT 9:10 PM CDT
Astronomical Twilight 3:53 AM CDT 9:54 PM CDT
Moon 12:24 AM CDT (4/30) 10:14 AM CDT (4/30)
Length of Visible Light 15h 14m
Length of Day
14h 11m
Waning Gibbous, 70% of the Moon is Illuminated
Apr 30
Waning Gibbous
May 2
Last Quarter
May 9
New
May 17
First Quarter
May 24
Full

Hourly Weather History & Observations

Time (CDT) Temp. Heat Index Dew Point Humidity Pressure Visibility Wind Dir Wind Speed Gust Speed Precip Events Conditions
12:15 AM 60.8 °F - 51.8 °F 72% 29.71 in 10.0 mi SE 6.9 mph - N/A   Clear
12:35 AM 60.8 °F - 51.8 °F 72% 29.71 in 10.0 mi SE 5.8 mph - N/A   Clear
1:15 AM 59.0 °F - 51.8 °F 77% 29.70 in 10.0 mi ESE 4.6 mph - N/A   Clear
1:35 AM 59.0 °F - 51.8 °F 77% 29.70 in 10.0 mi ESE 4.6 mph - N/A   Clear
1:55 AM 59.0 °F - 53.6 °F 82% 29.69 in 10.0 mi SE 4.6 mph - N/A   Clear
2:15 AM 59.0 °F - 53.6 °F 82% 29.68 in 10.0 mi ESE 5.8 mph - N/A   Clear
2:35 AM 60.8 °F - 53.6 °F 77% 29.68 in 10.0 mi SE 5.8 mph - N/A   Clear
2:55 AM 59.0 °F - 53.6 °F 82% 29.68 in 10.0 mi ESE 6.9 mph - N/A   Clear
3:15 AM 59.0 °F - 53.6 °F 82% 29.68 in 10.0 mi ESE 6.9 mph - N/A   Clear
3:55 AM 59.0 °F - 53.6 °F 82% 29.68 in 10.0 mi SE 6.9 mph - N/A   Scattered Clouds
4:15 AM 59.0 °F - 53.6 °F 82% 29.69 in 10.0 mi SSE 6.9 mph - N/A   Scattered Clouds
4:35 AM 59.0 °F - 53.6 °F 82% 29.68 in 10.0 mi SSE 6.9 mph - N/A   Scattered Clouds
4:55 AM 59.0 °F - 53.6 °F 82% 29.67 in 10.0 mi South 10.4 mph - N/A   Scattered Clouds
5:15 AM 60.8 °F - 55.4 °F 82% 29.66 in 10.0 mi SSW 13.8 mph 19.6 mph 0.01 in Rain Light Rain
5:35 AM 62.6 °F - 55.4 °F 77% 29.64 in 10.0 mi SSW 9.2 mph - 0.02 in Rain Light Rain
5:55 AM 62.6 °F - 53.6 °F 72% 29.65 in 10.0 mi South 15.0 mph - 0.02 in   Overcast
6:15 AM 62.6 °F - 55.4 °F 77% 29.67 in 10.0 mi South 10.4 mph 20.7 mph N/A   Overcast
6:35 AM 60.8 °F - 55.4 °F 82% 29.67 in 10.0 mi South 10.4 mph - N/A   Mostly Cloudy
6:55 AM 60.8 °F - 55.4 °F 82% 29.66 in 10.0 mi South 9.2 mph - N/A   Scattered Clouds
7:15 AM 62.6 °F - 55.4 °F 77% 29.65 in 10.0 mi South 6.9 mph - N/A   Scattered Clouds
7:35 AM 62.6 °F - 55.4 °F 77% 29.66 in 10.0 mi SSW 12.7 mph 16.1 mph N/A   Scattered Clouds
7:55 AM 64.4 °F - 53.6 °F 68% 29.64 in 10.0 mi SSW 13.8 mph 19.6 mph N/A   Scattered Clouds
8:15 AM 64.4 °F - 53.6 °F 68% 29.62 in 10.0 mi South 15.0 mph - N/A   Light Drizzle
8:35 AM 66.2 °F - 53.6 °F 64% 29.63 in 10.0 mi SSW 12.7 mph 18.4 mph N/A   Scattered Clouds
8:55 AM 68.0 °F - 53.6 °F 60% 29.64 in 10.0 mi SSW 15.0 mph 20.7 mph N/A   Clear
9:15 AM 68.0 °F - 55.4 °F 64% 29.64 in 10.0 mi SSW 13.8 mph 23.0 mph N/A   Clear
9:35 AM 69.8 °F - 55.4 °F 60% 29.63 in 10.0 mi South 15.0 mph 20.7 mph N/A   Clear
9:55 AM 69.8 °F - 57.2 °F 64% 29.64 in 10.0 mi South 15.0 mph 21.9 mph N/A   Clear
10:15 AM 71.6 °F - 57.2 °F 60% 29.65 in 10.0 mi South 15.0 mph - N/A   Clear
10:35 AM 73.4 °F - 57.2 °F 57% 29.65 in 10.0 mi SSW 13.8 mph 20.7 mph N/A   Clear
10:55 AM 73.4 °F - 55.4 °F 53% 29.65 in 10.0 mi SSW 12.7 mph 25.3 mph N/A   Clear
11:15 AM 77.0 °F - 55.4 °F 47% 29.64 in 10.0 mi SSW 20.7 mph 25.3 mph N/A   Clear
11:35 AM 77.0 °F - 55.4 °F 47% 29.64 in 10.0 mi SSW 18.4 mph 27.6 mph N/A   Clear
11:55 AM 78.8 °F - 53.6 °F 42% 29.64 in 10.0 mi SW 20.7 mph 28.8 mph N/A   Clear
12:15 PM 80.6 °F 80.3 °F 53.6 °F 39% 29.63 in 10.0 mi SSW 20.7 mph 27.6 mph N/A   Clear
12:35 PM 80.6 °F - 51.8 °F 37% 29.63 in 10.0 mi SW 17.3 mph 26.5 mph N/A   Clear
1:15 PM - - - N/A% - - North - - N/A   Unknown
1:35 PM 85.3 °F - 49.8 °F 29% 29.63 in 10.0 mi SSW 20.7 mph 28.8 mph 0.03 in   Clear
1:55 PM 86.0 °F - 49.8 °F 29% 29.63 in 10.0 mi SSW 16.1 mph 26.5 mph 0.03 in   Clear
2:15 PM 86.9 °F - 48.9 °F 27% 29.64 in 10.0 mi SSW 16.1 mph 23.0 mph N/A   Clear
2:35 PM 87.6 °F - 48.4 °F 26% 29.64 in 10.0 mi SSW 20.7 mph 24.2 mph N/A   Clear
2:55 PM 87.1 °F - 48.4 °F 26% 29.64 in 10.0 mi South 19.6 mph 25.3 mph N/A   Clear
3:15 PM 88.9 °F - 48.2 °F 25% 29.65 in 10.0 mi SSW 16.1 mph 25.3 mph N/A   Clear
3:35 PM 88.7 °F - 45.5 °F 22% 29.65 in 10.0 mi SW 26.5 mph 31.1 mph N/A   Clear
3:55 PM 88.9 °F - 45.7 °F 22% 29.65 in 10.0 mi SSW 16.1 mph 26.5 mph N/A   Clear
4:15 PM 88.9 °F - 44.8 °F 22% 29.66 in 10.0 mi SW 21.9 mph 29.9 mph N/A   Clear
4:35 PM 88.7 °F - 44.1 °F 21% 29.67 in 10.0 mi SW 19.6 mph 27.6 mph N/A   Clear
4:55 PM 88.3 °F - 45.1 °F 22% 29.68 in 10.0 mi WSW 19.6 mph 23.0 mph N/A   Clear
5:15 PM 87.8 °F - 44.4 °F 22% 29.68 in 10.0 mi SW 15.0 mph 24.2 mph N/A   Clear
5:35 PM 87.8 °F - 44.4 °F 22% 29.69 in 10.0 mi SW 15.0 mph 26.5 mph N/A   Clear
5:55 PM 87.3 °F - 45.0 °F 23% 29.70 in 10.0 mi SW 16.1 mph 21.9 mph N/A   Clear
6:15 PM 85.6 °F - 44.2 °F 23% 29.71 in 10.0 mi SW 15.0 mph 24.2 mph N/A   Clear
6:35 PM 85.3 °F - 45.7 °F 25% 29.71 in 10.0 mi WSW 13.8 mph 18.4 mph N/A   Clear
6:55 PM 84.2 °F - 46.8 °F 27% 29.72 in 10.0 mi WSW 11.5 mph - N/A   Clear
7:15 PM 82.6 °F - 48.6 °F 30% 29.73 in 10.0 mi West 9.2 mph - N/A   Clear
7:35 PM 80.6 °F - 49.8 °F 34% 29.74 in 10.0 mi West 8.1 mph - N/A   Scattered Clouds
7:55 PM 80.4 °F - 50.0 °F 34% 29.75 in 10.0 mi West 5.8 mph - N/A   Overcast
8:15 PM 79.5 °F - 50.9 °F 37% 29.76 in 10.0 mi West 5.8 mph - N/A   Overcast
8:35 PM 76.5 °F - 51.4 °F 42% 29.76 in 10.0 mi SW 4.6 mph - N/A   Mostly Cloudy
8:55 PM 73.0 °F - 52.9 °F 49% 29.77 in 10.0 mi SSE 3.5 mph - N/A   Scattered Clouds
9:15 PM 69.3 °F - 53.6 °F 57% 29.77 in 10.0 mi SSE 3.5 mph - N/A   Clear
9:35 PM 69.3 °F - 54.0 °F 58% 29.78 in 10.0 mi SSE 3.5 mph - N/A   Clear
9:55 PM 70.5 °F - 53.8 °F 55% 29.79 in 10.0 mi Calm Calm - N/A   Clear
10:15 PM 70.7 °F - 53.6 °F 55% 29.80 in 10.0 mi West 6.9 mph - N/A   Clear
10:35 PM 72.5 °F - 51.4 °F 47% 29.82 in 10.0 mi WNW 5.8 mph - N/A   Clear
10:55 PM 72.7 °F - 46.4 °F 39% 29.83 in 10.0 mi WNW 8.1 mph 18.4 mph N/A   Scattered Clouds
11:15 PM 71.2 °F - 45.9 °F 40% 29.84 in 10.0 mi NW 8.1 mph - N/A   Clear
11:35 PM 69.8 °F - 43.5 °F 39% 29.87 in 10.0 mi NW 9.2 mph 18.4 mph N/A   Clear